星链-31653 (STARLINK-31653 )

导读

STARLINK-31653是美国星链计划的卫星,于2024年4月13日发射入轨,隶属于 SpaceX 部署的低轨卫星互联网星座。作为星链大规模组网的一员,它承担为全球偏远地区、移动载体提供高速宽带互联网接入的任务,延续了星链批量部署、持续补网优化星座覆盖能力的建设节奏,支撑星链网络服务覆盖范围与通信稳定性升级。

Basic Information
目录编号:
59485
目录名称:
STARLINK-31653
国际标识:
2024-071B
轨道中心:
EARTH
卫星名称:
星链-31653
卫星全名:
星链-31653 (STARLINK-31653 )
卫星状态:
已陨落 最后检测时间 2025-02-27
发射日期:
2024-04-13 UTC
国别 :
美国 (US)
星等 :
--
Orbit Information
数据来源 国际轨道数据
星历时间: 2025-02-26T10:13:09+0800
轨道信息已过期473天
半长轴: 6601.358km
偏心率: 0.0012667
轨道倾角: 42.980°
近地点辐角 266.597°
升交点赤经 279.066°
平近点角 231.237°
近地点: 214.861km
远地点: 231.585km
周期: 88.963分钟
每日圈数: 16.186497
Detailed Information
固有亮度:
5
最大亮度:
1.5
卫星平台:
Starlink v2.0 mini
覆盖范围:
全球
运营商:
太空探索技术公司
运营商所在国:
美国
制造商(研发单位):
太空探索技术公司
制造商所在国:
美国
使用方式:
暂无
Satellite Introduction
星链(Starlink)计划是由太空探索技术公司(SpaceX)提出的一个巨型低轨卫星互联网星座项目,计划在2019年至2024年间在太空搭建由约1.2万颗卫星组成的“星链”网络,其中1584颗将部署在地球上空550千米处的近地轨道,并从2020年开始工作。该卫星仍在工作。